Regional Weather Roundup
Issued by NWS

Home | Current Version | Previous Version | Text Only | Print | Product List | Glossary On
Versions: 1 2 3 4 5 6 7 8 9 10 11 12 13 14 15 16 17 18 19 20 21 22 23 24 25 26 27 28 29 30 31 32 33 34 35 36 37 38 39 40 41 42 43 44 45 46 47 48 49 50
000
ASUS43 KDTX 162001
RWRMI
MICHIGAN HOURLY REGIONAL WEATHER ROUNDUP
NATIONAL WEATHER SERVICE DETROIT/PONTIAC MI
300 PM EST TUE JAN 16 2018

NOTE: "FAIR" INDICATES FEW OR NO CLOUDS BELOW 12,000 FEET WITH NO
SIGNIFICANT WEATHER AND/OR OBSTRUCTION TO VISIBILITY.

MIZ047>049-052>055-059>063-066>070-074>076-081>083-162100-
SOUTHEAST LOWER MICHIGAN

CITY           SKY/WX    TMP DP  RH WIND       PRES   REMARKS
ADRIAN         CLOUDY     8   2  76 W7        30.40F HAZE    WCI  -3
ALMA           FLURRIES  20  16  84 W5        30.37S WCI  14
ANN ARBOR      LGT SNOW  12   7  80 SW9       30.37S WCI   0
BAD AXE        SNOW      21  18  90 N6        30.33R VSB 1/2 WCI  13
CARO           LGT SNOW  18  16  94 W9        30.34S WCI   7
DETROIT CITY   CLOUDY    15   9  76 SW10      30.37S HAZE    WCI   2
DETROIT        LGT SNOW  13   7  77 SW10      30.39S WCI   0
FLINT          LGT SNOW  16  10  77 W9        30.36S WCI   4
GROSSE ILE     FLURRIES  11   4  74 W8        30.39S WCI  -1
HILLSDALE      LGT SNOW  12   3  67 W3        30.35S
HOWELL         LGT SNOW  13  10  86 W9        30.36S WCI   1

CITY           SKY/WX    TMP DP  RH WIND       PRES   REMARKS
JACKSON        LGT SNOW  10   4  76 SW8       30.37S WCI  -2
LAMBERTVILLE   CLOUDY     8   1  72 SW7       30.42S WCI  -4
LANSING        LGT SNOW  13   9  84 W8        30.38S FOG     WCI   2
LAPEER         LGT SNOW  18  14  86 W7        30.35R VSB 1   WCI   8
MASON          CLOUDY    13   5  71 SW5       30.37S HAZE    WCI   5
MONROE         CLOUDY     8  -1  69 SW12      30.41S WCI  -8
MT. CLEMENS    LGT SNOW  20  15  79 W9        30.35R FOG     WCI  10
PONTIAC        LGT SNOW  15  11  83 W9        30.33S FOG     WCI   3
PORT HOPE        N/A     23  19  85 N16       30.31R WCI  10
PORT HURON     LGT SNOW  19  14  79 W6        30.35S WCI  11
TRI CITIES     CLOUDY    21  15  78 N7        30.37R WCI  12
MIDLAND        CLOUDY    22  13  68 NW6       30.36S WCI  15
TROY           LGT SNOW  20  14  78 W8        30.37S WCI  10
SAGINAW HB     LGT SNOW  19  19 100 N5        30.36S WCI  13
$$
MIZ043>046-050>051-056>058-064>065-071>073-077>080-162100-
SOUTHWEST LOWER MICHIGAN

CITY           SKY/WX    TMP DP  RH WIND       PRES   REMARKS
BATTLE CREEK   LGT SNOW  10   5  80 SW6       30.39R VSB 1   WCI   0
BENTON HARBOR  FAIR      15   5  64 CALM      30.43S
BIG RAPIDS     CLOUDY    20   8  60 N5        30.35S WCI  14
COLDWATER      LGT SNOW   9   3  74 SW5       30.40R WCI   1
FREMONT        FAIR      22   3  45 N6        30.38S WCI  14
HOLLAND        PTSUNNY   19  13  77 W7        30.41S WCI  10
GRAND RAPIDS   FLURRIES  17  10  74 SW8       30.39R WCI   7
IONIA          LGT SNOW  17  11  80 SW9       30.37R WCI   5
KALAMAZOO      PTSUNNY   11   5  77 CALM      30.40S HAZE
LUDINGTON      CLOUDY    23  11  60 N9        30.40R WCI  13
MARSHALL       LGT SNOW  10   3  75 SW7       30.39S WCI  -2
MOUNT PLEASANT FAIR      22  10  58 N5        30.35S WCI  16
MUSKEGON       PTSUNNY   23  14  68 SW7       30.40S WCI  15
SOUTH HAVEN    LGT SNOW  16  10  77 CALM      30.42S
$$
MIZ016>042-162100-
NORTHERN LOWER MICHIGAN

CITY           SKY/WX    TMP DP  RH WIND       PRES   REMARKS
ALPENA         MIX PCPN  16   9  74 N9        30.38S WCI   4
BEAVER ISLAND  FAIR      17   5  60 N6        30.42S WCI   8
BELLAIRE       PTSUNNY   17   9  71 NW5       30.42S WCI  10
CADILLAC       PTSUNNY   18   8  65 NW8       30.32S WCI   8
CHARLEVOIX     FAIR      16   9  72 N5        30.44F WCI   9
GAYLORD        CLOUDY    14   7  73 VRB3      30.33S
GRAYLING       PTSUNNY   16   7  66 NW6       30.34S WCI   8
HARBOR SPRINGS FAIR      16   5  62 W5        30.40S WCI   9
HOUGHTON LAKE  PTSUNNY   18   7  62 N10       30.33S WCI   6
MANISTEE       FLURRIES  22  10  60 N8        30.41R WCI  12
OSCODA         FAIR      18   8  63 N7        30.36R WCI   9
PELLSTON       FAIR      15   4  61 N3        30.41S
ROGERS CITY    LGT SNOW  15   9  76 NW8       30.40S WCI   5
TRAVERSE CITY  PTSUNNY   19   9  65 N8        30.40S WCI   9
$$
MIZ007>008-015-162100-
EASTERN UPPER MICHIGAN

CITY           SKY/WX    TMP DP  RH WIND       PRES   REMARKS
KINROSS        FAIR      17   6  62 VRB7      30.40S WCI   8
MACKINAC ISLAN FAIR      16   6  63 NW3       30.40S
NEWBERRY       FAIR      16   6  64 N8        30.40S WCI   5
S. S. MARIE    FAIR      17   2  51 NW5       30.39F WCI  10
MUNISING         N/A     21  18  88 N5        30.43S WCI  15
$$
MIZ004>006-011>014-085-162100-
CENTRAL UPPER MICHIGAN

CITY           SKY/WX    TMP DP  RH WIND       PRES   REMARKS
MANISTIQUE     PTSUNNY   18   8  66 N3        30.43S
ESCANABA       CLOUDY    22  12  65 SE7       30.45F WCI  13
MENOMINEE      PTSUNNY   20  11  68 SE6       30.47S WCI  12
SAWYER-GWINN   FLURRIES  19  14  79 N9        30.40S WCI   9
$$
MIZ001>003-009>011-084-162100-
WESTERN UPPER MICHIGAN

CITY           SKY/WX    TMP DP  RH WIND       PRES   REMARKS
IRON MOUNTAIN  CLOUDY    19  11  70 NW13      30.40S WCI   6
HOUGHTON       CLOUDY    17   8  67 NW10      30.43F WCI   5
COPPER HARBOR    N/A     18  11  74 N10       30.46S WCI   6
IRONWOOD       FLURRIES  16  11  80 W7        30.48S WCI   6
$$

ABBREVIATIONS USED IN REMARKS
   TC - TEMPERATURE IN CELSIUS
  WCI - WIND CHILL INDEX
   HX - HEAT INDEX
  VSB - VISIBILITY





USA.gov is the U.S. government's official web portal to all federal, state and local government web resources and services.